Location: Observatory
(52.1446°N, 0.4624°W)
Time: 02:05:51
(UTC+01:00)

ISS - Pass Details

Date: 23 May 2018
Orbit: 402 x 406 km, 51.6° (Epoch: 21 June)

Event Time Altitude Azimuth Distance (km) Brightness Sun altitude
Rises 22:38:01 0° 243° (WSW) 2,317 0.1 -11.0°
Reaches altitude 10° 22:40:07 10° 239° (WSW) 1,458 -1.0 -11.1°
Maximum altitude 22:43:19 53° 161° (SSE) 502 -3.8 -11.4°
Drops below altitude 10° 22:46:31 10° 84° (E) 1,461 -1.3 -11.7°
Sets 22:48:37 0° 79° (E) 2,321 -0.2 -11.8°
